Muscatine, IA

6:04 PM CDT on September 20, 2017 (GMT -0500)
Muscatine Municipal

Weather History for KMUT - February, 2012

Change the Weather History Date:

Friday, February 24, 2012

  Actual Average Record
Temperature  
Mean Temperature 30 °F -  
Max Temperature 35 °F 40 °F 73 °F (2002)
Min Temperature 24 °F 22 °F -9 °F (1993)
Degree Days  
Heating Degree Days 36    
Moisture  
Dew Point 25 °F    
Average Humidity 79    
Maximum Humidity 87    
Minimum Humidity 64    
Precipitation  
Precipitation 0.15 in - - ()
Sea Level Pressure  
Sea Level Pressure 29.82 in    
Wind  
Wind Speed 14 mph (WNW)    
Max Wind Speed 26 mph    
Max Gust Speed 37 mph    
Visibility 7 miles    
Events Snow    
Averages and records for this station are not official NWS values.
T = Trace of Precipitation, MM = Missing Value Source: NWS Daily Summary

Daily Weather History Graph

Daily Weather History Graph

Search for Another Location

Airport or City:

Trip Planner

Search our weather history database for the weather conditions in past years. The results will help you decide how hot, cold, wet, or windy it might be!

Date:

Astronomy

Feb. 24, 2012 Rise Set
Actual Time 6:47 AM CST 5:48 PM CST
Civil Twilight 6:19 AM CST 6:16 PM CST
Nautical Twilight 5:47 AM CST 6:48 PM CST
Astronomical Twilight 5:15 AM CST 7:20 PM CST
Moon 7:39 AM CST (2/24) 8:55 PM CST (2/24)
Length of Visible Light 11h 57m
Length of Day
11h 01m
Waxing Crescent, 8% of the Moon is Illuminated
Feb 24
Waxing Crescent
Feb 29
First Quarter
Mar 8
Full
Mar 14
Last Quarter
Mar 22
New

Hourly Weather History & Observations

Time (CST) Temp. Windchill Dew Point Humidity Pressure Visibility Wind Dir Wind Speed Gust Speed Precip Events Conditions
12:15 AM 33.8 °F - 30.2 °F 87% 29.49 in 2.5 mi North - - 0.01 in Snow Light Snow
12:35 AM 33.8 °F - 30.2 °F 87% 29.50 in 2.0 mi North - - 0.01 in Snow Light Snow
12:55 AM 33.8 °F - 30.2 °F 87% 29.51 in 1.8 mi North - - 0.01 in Snow Light Snow
1:15 AM 33.8 °F - 30.2 °F 87% 29.52 in 1.5 mi North - - N/A Snow Light Snow
1:35 AM 33.8 °F - 30.2 °F 87% 29.53 in 2.0 mi North - - 0.01 in Snow Light Snow
1:55 AM 33.8 °F 25.3 °F 30.2 °F 87% 29.54 in 2.5 mi NNW 11.5 mph - 0.02 in Snow Light Snow
2:15 AM 33.8 °F 25.8 °F 30.2 °F 87% 29.55 in 2.5 mi NNW 10.4 mph - 0.01 in Snow Light Snow
2:35 AM 33.8 °F - 30.2 °F 87% 29.55 in 2.5 mi North - - 0.01 in Snow Light Snow
2:55 AM 33.8 °F 25.3 °F 30.2 °F 87% 29.57 in 2.5 mi NNW 11.5 mph - 0.02 in Snow Light Snow
3:15 AM 33.8 °F 24.3 °F 30.2 °F 87% 29.58 in 1.8 mi NNW 13.8 mph - N/A Snow Light Snow
3:35 AM 33.8 °F 25.3 °F 30.2 °F 87% 29.59 in 3.0 mi NNW 11.5 mph - N/A Snow Light Snow
3:55 AM 33.8 °F 25.3 °F 30.2 °F 87% 29.61 in 1.8 mi NNW 11.5 mph - N/A Snow Light Snow
4:15 AM 33.8 °F 24.8 °F 30.2 °F 87% 29.62 in 2.5 mi NNW 12.7 mph - 0.01 in Snow Light Snow
4:35 AM 33.8 °F 23.9 °F 30.2 °F 87% 29.63 in 2.0 mi NW 15.0 mph 23.0 mph 0.01 in Snow Light Snow
4:55 AM 33.8 °F 24.3 °F 30.2 °F 87% 29.65 in 2.5 mi NW 13.8 mph 19.6 mph 0.01 in Snow Light Snow
5:15 AM 33.8 °F 25.3 °F 30.2 °F 87% 29.66 in 3.0 mi NW 11.5 mph - N/A   Overcast
5:35 AM 33.8 °F 25.8 °F 30.2 °F 87% 29.67 in 4.0 mi NW 10.4 mph - N/A   Overcast
6:15 AM 33.8 °F 24.8 °F 30.2 °F 87% 29.69 in 5.0 mi WNW 12.7 mph - N/A   Overcast
6:35 AM 33.8 °F 23.9 °F 30.2 °F 87% 29.71 in 5.0 mi WNW 15.0 mph - N/A Snow Light Snow
6:55 AM 33.8 °F 24.3 °F 30.2 °F 87% 29.72 in 7.0 mi WNW 13.8 mph 18.4 mph N/A   Overcast
7:15 AM 33.8 °F 24.3 °F 28.4 °F 81% 29.74 in 7.0 mi WNW 13.8 mph 19.6 mph N/A   Overcast
7:35 AM 32.0 °F 21.6 °F 28.4 °F 87% 29.75 in 7.0 mi WNW 15.0 mph - N/A   Overcast
7:55 AM 32.0 °F 20.8 °F 28.4 °F 87% 29.76 in 10.0 mi WNW 17.3 mph - N/A   Mostly Cloudy
8:15 AM 32.0 °F 21.2 °F 28.4 °F 87% 29.77 in 10.0 mi WNW 16.1 mph 20.7 mph N/A   Mostly Cloudy
8:55 AM 33.8 °F 24.8 °F 28.4 °F 81% 29.80 in 7.0 mi WNW 12.7 mph 16.1 mph N/A   Overcast
9:15 AM 33.8 °F 24.3 °F 28.4 °F 81% 29.81 in 5.0 mi WNW 13.8 mph 20.7 mph 0.02 in Snow Light Snow
9:35 AM 33.8 °F 23.2 °F 28.4 °F 81% 29.82 in 3.0 mi WNW 17.3 mph 21.9 mph 0.03 in Snow Light Snow
9:55 AM 33.8 °F 23.9 °F 30.2 °F 87% 29.83 in 5.0 mi WNW 15.0 mph - 0.05 in   Overcast
10:15 AM 33.8 °F 24.3 °F 30.2 °F 87% 29.83 in 7.0 mi WNW 13.8 mph 18.4 mph 0.02 in   Overcast
10:35 AM 35.6 °F 26.6 °F 28.4 °F 75% 29.84 in 10.0 mi West 13.8 mph - 0.03 in   Overcast
10:55 AM 35.6 °F 23.7 °F 28.4 °F 75% 29.85 in 10.0 mi West 24.2 mph 28.8 mph 0.04 in   Overcast
11:15 AM 33.8 °F 22.8 °F 26.6 °F 75% 29.87 in 10.0 mi WNW 18.4 mph 26.5 mph N/A   Overcast
11:35 AM 33.8 °F 21.6 °F 24.8 °F 70% 29.88 in 10.0 mi WNW 23.0 mph 34.5 mph N/A   Overcast
12:15 PM 33.8 °F 21.9 °F 24.8 °F 70% 29.90 in 10.0 mi WNW 21.9 mph 36.8 mph N/A   Scattered Clouds
5:15 PM 30.2 °F 15.9 °F 19.4 °F 64% 30.00 in 10.0 mi West 26.5 mph 32.2 mph N/A   Mostly Cloudy
5:35 PM 28.4 °F 14.7 °F 19.4 °F 69% 30.01 in 10.0 mi West 21.9 mph 27.6 mph N/A   Scattered Clouds
5:55 PM 28.4 °F 15.8 °F 17.6 °F 64% 30.02 in 10.0 mi WNW 18.4 mph 26.5 mph N/A   Clear
6:15 PM 28.4 °F 15.4 °F 17.6 °F 64% 30.03 in 10.0 mi West 19.6 mph 27.6 mph N/A   Clear
6:35 PM 26.6 °F 13.8 °F 17.6 °F 69% 30.04 in 10.0 mi West 17.3 mph - N/A   Clear
6:55 PM 26.6 °F 13.1 °F 17.6 °F 69% 30.05 in 10.0 mi West 19.6 mph 25.3 mph N/A   Clear
7:15 PM 26.6 °F 14.7 °F 17.6 °F 69% 30.05 in 10.0 mi West 15.0 mph - N/A   Clear
7:35 PM 26.6 °F 14.3 °F 17.6 °F 69% 30.05 in 10.0 mi West 16.1 mph 21.9 mph N/A   Clear
7:55 PM 26.6 °F 15.2 °F 17.6 °F 69% 30.05 in 10.0 mi West 13.8 mph 19.6 mph N/A   Clear
8:15 PM 26.6 °F 15.7 °F 17.6 °F 69% 30.06 in 10.0 mi West 12.7 mph 17.3 mph N/A   Clear
8:35 PM 26.6 °F 15.7 °F 17.6 °F 69% 30.06 in 10.0 mi West 12.7 mph 17.3 mph N/A   Clear
8:55 PM 24.8 °F 13.4 °F 17.6 °F 74% 30.06 in 10.0 mi West 12.7 mph - N/A   Clear
9:15 PM 24.8 °F 14.0 °F 17.6 °F 74% 30.06 in 10.0 mi West 11.5 mph - N/A   Clear
9:35 PM 24.8 °F - 17.6 °F 74% 30.06 in 10.0 mi North - - N/A   Clear
9:55 PM 24.8 °F 13.4 °F 17.6 °F 74% 30.06 in 10.0 mi West 12.7 mph - N/A   Clear
10:15 PM 24.8 °F 13.4 °F 17.6 °F 74% 30.06 in 10.0 mi West 12.7 mph - N/A   Clear
10:55 PM 24.8 °F 14.0 °F 17.6 °F 74% 30.07 in 10.0 mi West 11.5 mph - N/A   Clear
11:15 PM 24.8 °F 14.0 °F 17.6 °F 74% 30.07 in 10.0 mi West 11.5 mph - N/A   Mostly Cloudy
11:35 PM 26.6 °F 16.8 °F 19.4 °F 74% 30.07 in 10.0 mi West 10.4 mph - N/A   Overcast
11:55 PM 26.6 °F 16.8 °F 19.4 °F 74% 30.07 in 10.0 mi West 10.4 mph - N/A Snow Light Snow